Change the Weather History Date:

Thursday, December 29, 2011

  Actual Average (KPOU) Record (KPOU)
Temperature  
Mean Temperature 24 °F 27 °F  
Max Temperature 30 °F 36 °F 72 °F (1984)
Min Temperature 19 °F 18 °F -1 °F (1970)
Degree Days  
Heating Degree Days 40 38  
Month to date heating degree days 973  
Since 1 July heating degree days 2251  
Cooling Degree Days 0 0  
Month to date cooling degree days 0  
Year to date cooling degree days 672  
Moisture  
Dew Point 14 °F    
Average Humidity 60    
Maximum Humidity 75    
Minimum Humidity 45    
Precipitation  
Precipitation 0.00 in 0.11 in 0.93 in (2005)
Month to date precipitation 3.34  
Year to date precipitation 46.34  
Sea Level Pressure  
Sea Level Pressure 29.97 in    
Wind  
Wind Speed 8 mph (WSW)    
Max Wind Speed 14 mph    
Max Gust Speed 22 mph    
Visibility 10 miles    
Events      
T = Trace of Precipitation, MM = Missing Value Source: NWS Daily Summary

Daily Weather History Graph

Daily Weather History Graph

Search for Another Location

Airport or City:

Trip Planner

Search our weather history database for the weather conditions in past years. The results will help you decide how hot, cold, wet, or windy it might be!

Date:

Astronomy

Dec. 29, 2011 Rise Set
Actual Time 7:23 AM EST 4:35 PM EST
Civil Twilight 6:51 AM EST 5:06 PM EST
Nautical Twilight 6:16 AM EST 5:41 PM EST
Astronomical Twilight 5:43 AM EST 6:15 PM EST
Moon 10:11 AM EST (12/29) 10:13 PM EST (12/29)
Length of Visible Light 10h 14m
Length of Day
9h 12m
Waxing Crescent, 26% of the Moon is Illuminated
Dec 29
Waxing Crescent
Jan 1
First Quarter
Jan 9
Full
Jan 16
Last Quarter
Jan 23
New

Hourly Weather History & Observations

Time (EST) Temp. Windchill Dew Point Humidity Pressure Visibility Wind Dir Wind Speed Gust Speed Precip Events Conditions
12:54 AM 24.1 °F 14.4 °F 10.0 °F 55% 29.84 in 10.0 mi WNW 9.2 mph 17.3 mph N/A   Clear
1:54 AM 23.0 °F 10.6 °F 7.0 °F 50% 29.88 in 10.0 mi NW 13.8 mph 21.9 mph N/A   Clear
2:54 AM 21.9 °F 11.0 °F 7.0 °F 53% 29.91 in 10.0 mi WNW 10.4 mph 19.6 mph N/A   Clear
3:54 AM 21.0 °F 8.1 °F 7.0 °F 55% 29.93 in 10.0 mi WNW 13.8 mph - N/A   Clear
4:54 AM 19.9 °F 7.9 °F 8.1 °F 60% 29.92 in 10.0 mi WNW 11.5 mph 20.7 mph N/A   Clear
7:54 AM 19.9 °F 9.3 °F 8.1 °F 60% 29.99 in 10.0 mi West 9.2 mph - N/A   Clear
8:54 AM 21.0 °F 13.4 °F 8.1 °F 57% 30.03 in 10.0 mi Variable 5.8 mph - N/A   Clear
9:54 AM 23.0 °F 11.7 °F 8.1 °F 53% 30.04 in 10.0 mi West 11.5 mph 18.4 mph N/A   Clear
10:54 AM 25.0 °F 18.1 °F 8.1 °F 49% 29.99 in 10.0 mi WNW 5.8 mph - N/A   Clear
12:54 PM 30.0 °F 23.2 °F 12.0 °F 47% 29.95 in 10.0 mi WSW 6.9 mph - N/A   Clear
1:54 PM 30.0 °F 22.4 °F 10.9 °F 45% 29.97 in 10.0 mi West 8.1 mph - N/A   Clear
2:54 PM 30.0 °F 21.7 °F 12.9 °F 49% 29.97 in 10.0 mi SW 9.2 mph - N/A   Clear
4:54 PM 28.9 °F 22.8 °F 15.1 °F 56% 29.98 in 10.0 mi SSW 5.8 mph - N/A   Partly Cloudy
5:54 PM 30.0 °F 26.5 °F 15.1 °F 54% 29.98 in 10.0 mi SSW 3.5 mph - N/A   Overcast
6:54 PM 28.0 °F 24.2 °F 17.1 °F 63% 29.99 in 10.0 mi South 3.5 mph - N/A   Partly Cloudy
8:46 PM 28.4 °F 21.2 °F 17.6 °F 64% 29.99 in 10.0 mi SSW 6.9 mph - N/A   Mostly Cloudy
8:54 PM 28.0 °F 21.7 °F 18.0 °F 66% 30.01 in 10.0 mi SSW 5.8 mph - N/A   Mostly Cloudy
9:17 PM 26.6 °F 20.0 °F 17.6 °F 69% 30.00 in 10.0 mi SSW 5.8 mph - N/A   Scattered Clouds
9:54 PM 27.0 °F - 19.0 °F 72% 30.01 in 10.0 mi Calm Calm - N/A   Overcast
10:49 PM 28.4 °F - 21.2 °F 74% 30.00 in 10.0 mi Calm Calm - N/A   Overcast
10:54 PM 28.0 °F - 21.0 °F 75% 30.01 in 10.0 mi Calm Calm - N/A   Overcast
11:10 PM 28.4 °F - 21.2 °F 74% 29.99 in 10.0 mi Calm Calm - N/A   Overcast
11:54 PM 28.9 °F - 21.9 °F 75% 29.99 in 10.0 mi Calm Calm - N/A   Overcast